Location: Palombina Nuova
(43.6167°N, 13.4000°E)
Time: 08:32:43
(UTC+00:00)

Cosmos 1328 Rocket - Pass Details

Date: 17 February 2020
Orbit: 600 x 628 km, 82.5° (Epoch: 03 April)

Event Time Altitude Azimuth Distance (km) Brightness Sun altitude
Rises 05:24:30 0° 180° (S) 2,897 7.1 -7.6°
Reaches altitude 10° 05:26:43 10° 178° (S) 1,997 6.3 -7.2°
Maximum altitude 05:31:07 68° 95° (E) 681 4.1 -6.5°
Drops below altitude 10° 05:35:33 10° 14° (NNE) 2,014 6.2 -5.7°
Sets 05:37:48 0° 11° (NNE) 2,925 7.0 -5.3°
